This is the latest recevied weather packets stored in our database for station/object AI5KP-13. If no packets are shown the sender has not sent any weather packets the latest 10 day(s).
| Time | Temp. | Humidity | Pressure | Rain* | Wind** | Luminosity | Snow |
|---|---|---|---|---|---|---|---|
| 1777941609 | 22.22° C | 62% | 1005.1 hPa | 0 mm | - | 18 W/m² | - |
| 1777941306 | 22.22° C | 62% | 1005.1 hPa | 0 mm | - | 21 W/m² | - |
| 1777941002 | 22.22° C | 61% | 1005.3 hPa | 0 mm | - | 28 W/m² | - |
| 1777940698 | 22.22° C | 62% | 1005.1 hPa | 0 mm | - | 32 W/m² | - |
| 1777940397 | 22.78° C | 61% | 1005.2 hPa | 0 mm | - | 37 W/m² | - |
| 1777940094 | 22.78° C | 62% | 1005.2 hPa | 0 mm | - | 39 W/m² | - |
| 1777939790 | 22.78° C | 63% | 1005.2 hPa | 0 mm | - | 48 W/m² | - |
| 1777939489 | 22.78° C | 61% | 1005.2 hPa | 0 mm | - | 50 W/m² | - |
| 1777939185 | 22.78° C | 60% | 1005.4 hPa | 0 mm | - | 53 W/m² | - |
| 1777938882 | 22.78° C | 59% | 1005.2 hPa | 0 mm | - | 63 W/m² | - |
| 1777938579 | 23.33° C | 58% | 1005.1 hPa | 0 mm | - | 85 W/m² | - |
| 1777938276 | 23.33° C | 59% | 1005.2 hPa | 0 mm | - | 85 W/m² | - |
| 1777937972 | 23.33° C | 58% | 1005.1 hPa | 0 mm | - | 87 W/m² | - |
| 1777937668 | 23.33° C | 58% | 1005.2 hPa | 0 mm | - | 85 W/m² | - |
| 1777937365 | 23.33° C | 57% | 1005.3 hPa | 0 mm | - | 84 W/m² | - |
| 1777937063 | 23.33° C | 58% | 1005.4 hPa | 0 mm | - | 88 W/m² | - |
| 1777936759 | 23.33° C | 58% | 1005.4 hPa | 0 mm | - | 97 W/m² | - |
| 1777936455 | 23.89° C | 58% | 1005.4 hPa | 0 mm | - | 108 W/m² | - |
| 1777936152 | 23.89° C | 56% | 1005.4 hPa | 0 mm | - | 103 W/m² | - |
| 1777935849 | 23.89° C | 58% | 1005.2 hPa | 0 mm | - | 125 W/m² | - |
| 1777935548 | 23.89° C | 56% | 1005.3 hPa | 0 mm | - | 143 W/m² | - |
| 1777935244 | 23.89° C | 58% | 1005.3 hPa | 0 mm | - | 121 W/m² | - |
| 1777934942 | 23.89° C | 55% | 1005.4 hPa | 0 mm | - | 190 W/m² | - |
| 1777934638 | 24.44° C | 55% | 1005.4 hPa | 0 mm | - | 162 W/m² | - |
| 1777934335 | 24.44° C | 54% | 1005.1 hPa | 0 mm | - | 256 W/m² | - |
* Rain latest hour (hover to see other rain measurements)
** Current wind speed in m/s (hover to see current wind gust speed)